Location: Carabito
(9.8355°N, 67.9249°W)
Time: 12:01:44
(UTC+00:00)

Cosmos 1975 Rocket - Pass Details

Date: 23 May 2024
Orbit: 601 x 629 km, 82.5° (Epoch: 21 June)

Event Time Altitude Azimuth Distance (km) Brightness Sun altitude
Exits shadow 08:40:32 37° 302° (WNW) 933 3.7 -21.0°
Drops below altitude 10° 08:43:48 10° 346° (NNW) 1,938 5.7 -20.3°
Sets 08:46:06 0° 353° (N) 2,838 6.7 -19.7°
